Weather in Ossora

Russia / Kamchatka Krai     59°15′05″N   163°04′28″E
temp.,
°C
wind,
m/s
gust,
m/s
humid.,
%
clouds,
%
prec.,
mm/h
press.,
hPa
HPBL,
m
13 august, sat
sat1300:00+11sw11953 0.0 101047
03:00+11nnw01975 0.0 101029
06:00+11ne119612 0.0 101128
09:00+15nne228962 0.0 1011325
12:00+17ene227994 0.0 1011514
15:00+17e217976 0.0 1011458
18:00+17ese228121 0.0 1011335
21:00+13s229421 0.0 101230
14 august, sun
sun1400:00+12ssw229485 0.0 101224
03:00+11ssw119529 0.0 101342
06:00+12ssw1194100 0.0 101349
09:00+15sse118582 0.0 1014269
12:00+17sse437984 0.0 1014543
15:00+18sse437725 0.0 1014589
18:00+16s447939 0.0 1014374
21:00+12s129343 0.0 101555
15 august, mon
mon1500:00+11sw1296100 0.0 101656
03:00+11wsw1197100 0.0 101543
06:00+12ssw1196100 0.0 101556
09:00+14sse3489100 0.0 1015568
12:00+14sse4589100 0.1 1014590
15:00+14sse5693100 0.2 1013496
18:00+13s6896100 0.4 1013557
21:00+13sse6998100 0.5 1012627
16 august, tue
tue1600:00+12sse61098100 1.6 1010643
03:00+12sse5898100 1.1 1008553
06:00+12ene3498100 3.3 1005234
09:00+12nne2398100 4.1 1001167
12:00+13ne2295100 5.8 999206
15:00+13ene2296100 0.6 996218
18:00+13ne2396100 0.8 994237
21:00+13nne2397100 0.4 994132
17 august, wed
wed1700:00+13n3597100 1.3 993261
03:00+13n4696100 0.3 993223
06:00+12n5995100 0.6 994528
09:00+12n3492100 0.4 996286
12:00+13wnw1186100 0.6 996135
15:00+13ese1188100 0.3 996101
18:00+12e1297100 0.9 99799
21:00+11ne4697100 3.3 999392